Location: Monteux
(44.0348°N, 4.9972°E)
Time: 14:00:19
(UTC+00:00)

Cosmos 1328 Rocket - Pass Details

Date: 30 November 2020
Orbit: 601 x 627 km, 82.5° (Epoch: 27 January)

Event Time Altitude Azimuth Distance (km) Brightness Sun altitude
Rises 17:17:13 0° 186° (S) 2,840 7.3 -12.9°
Reaches altitude 10° 17:19:24 10° 186° (S) 1,944 6.4 -13.3°
Maximum altitude 17:23:43 88° 96° (E) 613 3.5 -14.1°
Drops below altitude 10° 17:28:05 10° 9° (N) 1,973 5.9 -14.8°
Sets 17:30:19 0° 9° (N) 2,887 6.7 -15.2°
Enters shadow 17:30:20 - 9° (N) 2,894 6.8 -15.2°
